Location: Norton
(51.3000°N, 0.8167°E)
Time: 14:09:11
(UTC+00:00)

USA 308 - Pass Details

Date: 03 March 2021
Orbit: 571 x 574 km, 54.0° (Epoch: 10 April)

Event Time Altitude Azimuth Distance (km) Brightness Sun altitude
Rises 20:05:41 0° 284° (WNW) 2,782 7.9 -23.1°
Reaches altitude 10° 20:07:58 10° 287° (WNW) 1,882 6.6 -23.4°
Enters shadow 20:12:07 65° 360° (N) 634 3.1 -24.0°
